�N����,����,�~����,�C��,���x,�C��,����,���ϕ���,�ő�u�ԕ���,�ő厞����,���˗�,�I�_���x,�n�����x,�ő啗���N��,DTYPE
"20/11/24","00:10",0.0,8.9,91.7,1018.5,311.9,2.6,3.9,325.6,0.00,7.7,12.8,"00:06:08",1
"20/11/24","00:20",0.0,8.8,91.8,1018.7,307.7,2.5,3.5,310.6,0.00,7.6,12.9,"00:16:40",1
"20/11/24","00:30",0.0,8.7,91.9,1018.7,311.1,2.2,3.7,330.8,0.00,7.5,12.8,"00:21:28",1
"20/11/24","00:40",0.0,8.6,91.9,1018.5,317.9,1.6,2.7,306.3,0.00,7.4,12.9,"00:31:52",1
"20/11/24","00:50",0.0,8.3,91.9,1018.2,295.0,1.8,3.2,309.8,0.00,7.1,12.8,"00:44:32",1
"20/11/24","01:00",0.0,8.1,92.2,1018.0,286.1,1.6,3.1,302.2,0.00,7.0,12.8,"00:59:36",1
"20/11/24","01:10",0.0,8.0,92.3,1018.2,317.3,1.2,2.6,310.0,0.00,6.9,12.6,"01:06:16",1
"20/11/24","01:20",0.0,7.6,92.4,1018.5,300.7,1.1,2.5,317.3,0.00,6.5,12.7,"01:18:08",1
"20/11/24","01:30",0.0,7.2,92.5,1018.5,285.7,1.3,1.7,289.6,0.00,6.1,12.4,"01:21:04",1
"20/11/24","01:40",0.0,7.1,92.9,1018.0,274.8,1.6,2.1,287.3,0.00,6.1,12.4,"01:34:00",1
"20/11/24","01:50",0.0,7.1,92.9,1018.5,275.0,1.6,2.1,317.6,0.00,6.1,12.5,"01:48:24",1
"20/11/24","02:00",0.0,7.1,93.0,1018.2,280.2,1.6,2.6,316.1,0.00,6.1,12.4,"01:56:56",1
"20/11/24","02:10",0.0,7.1,93.1,1018.2,294.4,1.6,2.2,318.1,0.00,6.1,12.1,"02:07:52",1
"20/11/24","02:20",0.0,6.8,93.2,1018.2,292.0,1.6,2.4,317.3,0.00,5.8,12.2,"02:11:28",1
"20/11/24","02:30",0.0,6.8,93.5,1018.5,274.0,1.6,1.9,259.4,0.00,5.9,12.2,"02:20:48",1
"20/11/24","02:40",0.0,6.6,93.5,1018.5,275.8,1.3,1.7,279.2,0.00,5.7,11.9,"02:32:00",1
"20/11/24","02:50",0.0,6.5,93.7,1018.5,278.7,1.5,1.9,294.1,0.00,5.6,12.1,"02:40:24",1
"20/11/24","03:00",0.0,6.6,93.9,1019.2,278.5,1.7,2.1,286.4,0.00,5.7,11.7,"02:57:04",1
"20/11/24","03:10",0.0,6.8,93.9,1019.2,283.8,1.8,2.9,299.9,0.00,5.9,12.1,"03:07:36",1
"20/11/24","03:20",0.0,6.6,94.0,1018.7,279.5,1.1,2.1,310.3,0.00,5.7,11.8,"03:19:36",1
"20/11/24","03:30",0.0,6.5,94.2,1019.2,285.4,1.2,2.7,307.0,0.00,5.7,11.8,"03:24:40",1
"20/11/24","03:40",0.0,6.4,94.4,1019.0,257.8,1.2,2.2,249.7,0.00,5.6,11.8,"03:38:40",1
"20/11/24","03:50",0.0,6.2,94.3,1018.7,287.2,1.5,1.9,308.2,0.00,5.4,11.6,"03:45:20",1
"20/11/24","04:00",0.0,6.2,94.6,1018.5,276.9,1.5,2.4,263.6,0.00,5.4,11.7,"03:55:36",1
"20/11/24","04:10",0.0,6.3,94.7,1018.7,274.5,1.6,2.5,266.2,0.00,5.6,11.7,"04:08:56",1
"20/11/24","04:20",0.0,6.4,94.7,1018.7,272.9,1.6,2.9,266.5,0.00,5.7,11.7,"04:12:40",1
"20/11/24","04:30",0.0,6.2,94.9,1018.7,277.7,1.5,2.1,264.2,0.00,5.5,11.5,"04:20:16",1
"20/11/24","04:40",0.0,6.2,95.0,1018.7,271.4,1.7,2.5,256.1,0.00,5.5,11.6,"04:37:20",1
"20/11/24","04:50",0.0,6.1,95.0,1019.2,278.5,1.6,2.5,260.5,0.00,5.4,11.9,"04:42:40",1
"20/11/24","05:00",0.0,6.0,95.1,1019.0,279.7,1.5,2.4,324.2,0.00,5.3,11.5,"04:54:56",1
"20/11/24","05:10",0.0,5.8,95.2,1019.2,281.5,1.5,2.2,279.4,0.00,5.1,11.6,"05:02:24",1
"20/11/24","05:20",0.0,5.7,95.3,1019.0,280.7,1.5,2.2,281.5,0.00,5.0,11.5,"05:10:56",1
"20/11/24","05:30",0.0,5.6,95.4,1019.0,281.3,1.5,2.1,269.7,0.00,5.0,11.4,"05:28:50",1
"20/11/24","05:40",0.0,5.6,95.5,1019.0,281.1,1.3,2.0,269.4,0.00,5.0,11.4,"05:34:46",1
"20/11/24","05:50",0.0,5.6,95.6,1018.7,291.5,1.7,2.1,298.2,0.00,5.0,11.2,"05:42:42",1
"20/11/24","06:00",0.0,5.5,95.7,1019.0,282.3,1.5,2.4,322.5,0.00,4.9,11.1,"05:55:20",1
"20/11/24","06:10",0.0,5.5,95.8,1019.0,270.7,1.3,1.7,281.0,0.00,4.9,11.2,"06:08:40",1
"20/11/24","06:20",0.0,5.5,95.8,1019.4,284.4,1.7,2.6,318.9,0.00,4.9,11.2,"06:14:22",1
"20/11/24","06:30",0.0,5.4,95.8,1019.2,311.8,1.0,2.0,272.9,0.00,4.8,11.2,"06:20:24",1
"20/11/24","06:40",0.0,5.1,96.0,1019.2,284.6,1.1,1.6,287.2,0.00,4.6,11.1,"06:37:42",1
"20/11/24","06:50",0.0,4.8,96.0,1019.2,303.0,1.6,2.1,319.9,0.00,4.3,11.0,"06:49:58",1
"20/11/24","07:00",0.0,4.8,96.2,1019.2,294.8,1.7,2.4,316.6,0.00,4.3,11.1,"06:56:20",1
"20/11/24","07:10",0.0,5.1,96.3,1019.7,294.0,1.5,2.0,311.4,0.00,4.6,11.2,"07:09:04",1
"20/11/24","07:20",0.0,5.1,96.3,1019.9,321.8,1.7,2.6,321.8,0.00,4.6,11.0,"07:12:32",1
"20/11/24","07:30",0.0,5.5,96.5,1019.7,304.7,1.7,3.5,326.3,0.00,5.0,11.0,"07:29:52",1
"20/11/24","07:40",0.0,6.4,96.4,1020.1,306.4,2.3,4.4,320.8,0.00,5.9,11.1,"07:39:36",1
"20/11/24","07:50",0.0,6.9,96.2,1020.4,318.8,2.3,3.9,327.6,0.01,6.4,11.1,"07:48:54",1
"20/11/24","08:00",0.0,7.3,96.0,1020.8,316.7,2.3,3.4,321.1,0.02,6.7,11.1,"07:58:50",1
"20/11/24","08:10",0.0,7.8,95.8,1021.1,314.6,2.3,3.9,323.8,0.04,7.2,11.2,"08:00:16",1
"20/11/24","08:20",0.0,8.2,95.5,1021.1,316.5,1.7,3.6,341.6,0.05,7.6,11.2,"08:15:20",1
"20/11/24","08:30",0.0,8.7,94.9,1021.3,296.9,1.5,2.9,331.2,0.07,8.0,11.4,"08:29:12",1
"20/11/24","08:40",0.0,8.8,94.7,1021.3,316.3,2.0,3.4,343.6,0.09,8.0,11.6,"08:30:32",1
"20/11/24","08:50",0.0,9.6,94.0,1021.3,288.8,1.1,2.6,328.4,0.13,8.7,11.6,"08:44:40",1
"20/11/24","09:00",0.0,10.0,93.2,1021.8,287.6,1.2,2.6,329.8,0.17,9.0,11.7,"08:56:24",1
"20/11/24","09:10",0.0,10.2,91.4,1021.8,242.5,0.7,1.3,259.7,0.20,8.9,12.0,"09:00:32",1
"20/11/24","09:20",0.0,10.8,90.6,1022.0,269.3,1.0,1.8,240.7,0.22,9.4,12.0,"09:13:20",1
"20/11/24","09:30",0.0,10.9,88.4,1021.8,246.0,1.1,2.0,243.4,0.24,9.1,12.0,"09:23:20",1
"20/11/24","09:40",0.0,11.5,86.6,1022.3,244.8,0.7,1.7,243.4,0.27,9.4,12.4,"09:33:04",1
"20/11/24","09:50",0.0,12.1,83.6,1022.0,226.6,0.6,1.2,244.5,0.29,9.5,12.5,"09:41:28",1
"20/11/24","10:00",0.0,12.7,80.8,1021.8,262.9,0.5,1.9,232.7,0.31,9.5,12.7,"09:52:00",1
"20/11/24","10:10",0.0,13.2,77.5,1021.3,249.3,0.7,1.4,235.9,0.33,9.4,12.8,"10:04:32",1
"20/11/24","10:20",0.0,13.2,74.1,1021.3,187.1,0.8,2.1,101.3,0.34,8.7,13.2,"10:16:56",1
"20/11/24","10:30",0.0,13.6,72.4,1020.8,244.9,0.7,1.9,212.0,0.36,8.8,13.3,"10:20:24",1
"20/11/24","10:40",0.0,13.5,70.0,1020.8,180.3,1.1,2.1,237.1,0.37,8.2,13.3,"10:35:12",1
"20/11/24","10:50",0.0,13.9,67.3,1020.6,223.6,1.1,3.1,217.9,0.39,8.0,13.5,"10:40:08",1
"20/11/24","11:00",0.0,14.3,66.6,1020.6,257.0,1.0,2.0,239.2,0.39,8.2,13.8,"10:52:24",1
"20/11/24","11:10",0.0,14.4,64.2,1020.4,158.8,1.0,2.9,113.5,0.40,7.8,14.0,"11:07:04",1
"20/11/24","11:20",0.0,14.7,62.3,1020.1,282.9,0.8,2.8,234.2,0.41,7.6,14.1,"11:14:56",1
"20/11/24","11:30",0.0,15.0,62.3,1019.9,288.3,1.3,3.1,307.3,0.42,7.9,14.2,"11:26:24",1
"20/11/24","11:40",0.0,15.5,62.7,1019.7,289.5,1.1,2.9,345.6,0.42,8.5,14.4,"11:31:12",1
"20/11/24","11:50",0.0,15.6,61.9,1019.4,234.8,1.2,2.7,230.6,0.43,8.4,14.7,"11:44:16",1
"20/11/24","12:00",0.0,15.7,61.0,1019.2,257.1,1.3,2.7,341.3,0.43,8.2,14.7,"11:54:48",1
"20/11/24","12:10",0.0,15.4,60.5,1018.7,214.5,1.2,3.1,235.1,0.43,7.8,14.8,"12:06:48",1
"20/11/24","12:20",0.0,15.7,60.4,1018.7,233.3,1.3,3.2,124.6,0.37,8.1,14.8,"12:18:08",1
"20/11/24","12:30",0.0,15.8,61.4,1018.5,195.4,1.2,2.8,111.7,0.42,8.4,15.1,"12:27:28",1
"20/11/24","12:40",0.0,15.9,60.6,1018.5,182.3,1.1,2.6,113.9,0.41,8.3,15.3,"12:31:44",1
"20/11/24","12:50",0.0,16.1,59.9,1018.5,209.6,1.2,3.2,213.3,0.40,8.4,15.4,"12:48:00",1
"20/11/24","13:00",0.0,16.2,59.7,1018.2,202.8,1.1,2.7,135.9,0.39,8.4,15.5,"12:58:32",1
"20/11/24","13:10",0.0,16.6,59.0,1017.8,210.9,0.8,2.2,222.0,0.39,8.6,15.9,"13:01:36",1
"20/11/24","13:20",0.0,16.8,57.4,1018.2,236.7,1.3,2.5,248.5,0.37,8.4,15.7,"13:15:36",1
"20/11/24","13:30",0.0,16.4,58.1,1017.8,113.2,1.5,3.3,100.6,0.36,8.2,15.8,"13:24:40",1
"20/11/24","13:40",0.0,16.4,56.6,1017.5,87.6,1.2,2.5,131.2,0.35,7.8,16.1,"13:34:16",1
"20/11/24","13:50",0.0,17.0,56.8,1018.2,248.6,1.1,2.2,118.8,0.34,8.4,16.2,"13:42:40",1
"20/11/24","14:00",0.0,17.1,53.4,1017.8,215.0,1.1,2.6,234.8,0.32,7.6,16.0,"13:51:52",1
"20/11/24","14:10",0.0,17.5,53.0,1017.3,247.5,0.7,1.7,331.1,0.29,7.9,16.1,"14:06:00",1
"20/11/24","14:20",0.0,17.5,52.7,1017.3,292.2,0.8,2.4,336.0,0.27,7.8,16.2,"14:10:56",1
"20/11/24","14:30",0.0,17.3,51.4,1017.1,80.7,0.8,1.8,19.7,0.24,7.2,16.4,"14:22:00",1
"20/11/24","14:40",0.0,17.0,51.0,1017.1,53.5,1.2,3.3,70.5,0.22,6.8,16.1,"14:38:08",1
"20/11/24","14:50",0.0,17.1,51.2,1016.8,354.5,1.5,4.1,342.2,0.20,7.0,16.4,"14:40:40",1
"20/11/24","15:00",0.0,17.5,49.9,1017.3,323.1,1.2,2.5,333.6,0.17,7.0,16.3,"14:57:36",1
"20/11/24","15:10",0.0,17.2,51.3,1017.1,293.5,1.3,2.7,321.4,0.15,7.1,16.2,"15:01:52",1
"20/11/24","15:20",0.0,16.7,52.4,1017.3,309.1,1.7,4.2,344.1,0.13,7.0,16.2,"15:16:16",1
"20/11/24","15:30",0.0,16.5,52.7,1017.3,324.3,1.8,3.5,340.9,0.10,6.9,16.2,"15:27:20",1
"20/11/24","15:40",0.0,16.3,53.4,1017.3,323.6,2.0,4.2,332.1,0.08,6.9,16.0,"15:32:40",1
"20/11/24","15:50",0.0,15.7,54.3,1018.0,332.6,2.5,4.3,338.6,0.06,6.5,15.8,"15:43:36",1
"20/11/24","16:00",0.0,15.4,56.0,1018.0,330.8,2.2,4.2,331.9,0.04,6.7,15.7,"15:52:24",1
"20/11/24","16:10",0.0,14.9,56.8,1017.8,332.2,2.5,4.5,324.4,0.01,6.5,15.7,"16:05:20",1
"20/11/24","16:20",0.0,14.4,58.0,1017.5,334.7,2.2,4.3,331.5,0.00,6.3,15.6,"16:13:44",1
"20/11/24","16:30",0.0,14.0,59.0,1017.5,329.7,2.2,4.2,347.4,0.00,6.2,15.5,"16:23:06",1
"20/11/24","16:40",0.0,13.7,60.0,1018.0,316.1,2.3,3.9,317.8,0.00,6.1,15.2,"16:32:30",1
"20/11/24","16:50",0.0,13.3,61.0,1017.8,313.8,2.6,3.7,317.5,0.00,6.0,15.2,"16:44:24",1
"20/11/24","17:00",0.0,13.1,62.3,1018.0,311.7,2.2,3.4,321.8,0.00,6.1,14.9,"16:50:48",1
"20/11/24","17:10",0.0,12.7,63.9,1018.0,315.2,2.2,3.1,327.8,0.00,6.1,14.8,"17:06:40",1
"20/11/24","17:20",0.0,12.4,65.2,1018.0,314.4,2.0,2.9,316.4,0.00,6.1,14.7,"17:15:42",1
"20/11/24","17:30",0.0,11.9,67.1,1018.2,305.7,2.0,3.1,311.7,0.00,6.0,14.7,"17:24:16",1
"20/11/24","17:40",0.0,11.7,68.7,1018.2,325.2,2.3,3.6,327.0,0.00,6.2,14.7,"17:32:38",1
"20/11/24","17:50",0.0,11.4,69.8,1018.5,321.4,2.3,3.5,324.3,0.00,6.1,14.6,"17:44:40",1
"20/11/24","18:00",0.0,11.2,70.5,1018.7,307.4,2.2,3.2,328.1,0.00,6.1,14.3,"17:56:58",1
"20/11/24","18:10",0.0,11.1,70.7,1018.5,304.5,2.1,3.1,323.9,0.00,6.0,14.6,"18:08:16",1
"20/11/24","18:20",0.0,11.1,70.9,1018.5,312.8,2.3,3.7,328.5,0.00,6.1,14.2,"18:19:40",1
"20/11/24","18:30",0.0,11.3,70.4,1018.7,325.1,2.8,4.7,332.8,0.00,6.2,14.1,"18:26:04",1
"20/11/24","18:40",0.0,11.3,69.9,1019.0,329.3,2.7,4.2,316.9,0.00,6.1,14.1,"18:30:08",1
"20/11/24","18:50",0.0,10.9,70.2,1019.0,292.1,1.6,2.9,334.3,0.00,5.7,13.8,"18:40:10",1
"20/11/24","19:00",0.0,10.5,71.1,1019.0,307.1,1.6,2.7,303.8,0.00,5.5,14.1,"18:53:56",1
"20/11/24","19:10",0.0,10.3,71.8,1018.7,303.9,1.6,2.8,309.7,0.00,5.5,13.6,"19:08:14",1
"20/11/24","19:20",0.0,10.2,72.6,1019.0,318.2,2.0,3.1,338.9,0.00,5.5,13.7,"19:13:20",1
"20/11/24","19:30",0.0,10.4,73.2,1019.4,323.5,2.6,3.9,329.8,0.00,5.9,13.6,"19:23:12",1
"20/11/24","19:40",0.0,10.3,73.9,1019.2,329.8,2.6,4.2,341.6,0.00,5.9,13.4,"19:36:08",1
"20/11/24","19:50",0.0,10.2,74.6,1019.2,333.0,2.5,4.1,345.3,0.00,5.9,13.5,"19:44:08",1
"20/11/24","20:00",0.0,10.0,75.4,1019.4,326.6,2.3,3.7,330.7,0.00,5.9,13.3,"19:58:24",1
"20/11/24","20:10",0.0,9.8,76.0,1019.4,306.2,2.2,3.2,305.1,0.00,5.8,13.3,"20:02:16",1
"20/11/24","20:20",0.0,9.9,76.6,1019.7,317.7,3.0,4.3,329.7,0.00,6.0,13.4,"20:12:08",1
"20/11/24","20:30",0.0,9.8,76.9,1019.9,310.5,2.5,3.5,324.5,0.00,6.0,13.0,"20:20:08",1
"20/11/24","20:40",0.0,9.8,77.4,1019.7,324.2,2.6,3.6,327.9,0.00,6.1,13.3,"20:30:32",1
"20/11/24","20:50",0.0,9.7,77.6,1019.7,300.0,1.7,2.6,328.7,0.00,6.0,13.0,"20:40:16",1
"20/11/24","21:00",0.0,9.6,78.2,1019.4,322.4,2.2,3.1,339.4,0.00,6.0,13.1,"20:58:48",1
"20/11/24","21:10",0.0,9.8,78.5,1019.7,331.2,2.7,3.7,342.6,0.00,6.3,13.0,"21:02:56",1
"20/11/24","21:20",0.0,9.8,78.7,1019.9,329.5,2.6,4.3,334.8,0.00,6.3,13.1,"21:11:44",1
"20/11/24","21:30",0.0,9.8,79.1,1019.7,329.9,2.5,3.9,343.2,0.00,6.4,13.1,"21:28:58",1
"20/11/24","21:40",0.0,9.9,79.2,1019.9,324.5,2.0,3.3,336.4,0.00,6.5,13.2,"21:38:38",1
"20/11/24","21:50",0.0,9.9,79.1,1020.4,329.9,2.3,3.4,335.8,0.00,6.5,13.0,"21:49:40",1
"20/11/24","22:00",0.0,9.8,79.2,1019.9,334.1,2.1,3.1,332.3,0.00,6.4,12.8,"21:56:02",1
"20/11/24","22:10",0.0,10.0,79.3,1019.7,334.3,2.1,3.2,338.8,0.00,6.6,13.0,"22:06:58",1
"20/11/24","22:20",0.0,10.1,79.1,1019.9,334.7,2.1,3.3,332.9,0.00,6.7,13.0,"22:11:54",1
"20/11/24","22:30",0.0,10.2,78.9,1019.9,331.5,2.2,3.7,335.8,0.00,6.7,13.0,"22:28:40",1
"20/11/24","22:40",0.0,10.3,78.4,1019.9,325.9,2.8,4.5,334.8,0.00,6.8,13.2,"22:39:06",1
"20/11/24","22:50",0.0,10.4,77.8,1019.9,324.2,2.3,3.5,335.7,0.00,6.7,12.9,"22:44:50",1
"20/11/24","23:00",0.0,10.4,77.6,1019.9,325.1,2.3,4.3,341.6,0.00,6.7,13.0,"22:59:24",1
"20/11/24","23:10",0.0,10.4,77.5,1020.1,327.9,2.5,3.5,324.3,0.00,6.7,12.9,"23:08:24",1
"20/11/24","23:20",0.0,10.4,77.5,1020.1,325.8,2.2,4.4,337.4,0.00,6.7,12.8,"23:18:22",1
"20/11/24","23:30",0.0,10.3,77.7,1020.1,327.3,2.1,3.1,318.0,0.00,6.6,12.9,"23:25:32",1
"20/11/24","23:40",0.0,10.3,77.9,1019.7,330.3,2.3,3.6,324.8,0.00,6.7,12.8,"23:37:26",1
"20/11/24","23:50",0.0,10.3,78.1,1019.4,328.7,2.5,4.0,333.0,0.00,6.7,12.8,"23:43:32",1
"20/11/24","24:00",0.0,10.2,78.4,1019.7,330.1,2.1,2.9,336.9,0.00,6.7,12.9,"23:54:08",1
